Location: Sungai Kamana Besar
(2.6333°N, 113.4333°E)
Time: 04:46:31
(UTC+00:00)

BREEZE-M DEB (TANK) - Pass Details

Date: 29 May 2022
Orbit: 314 x 16639 km, 49.5° (Epoch: 26 June)

Event Time Altitude Azimuth Distance (km) Brightness Sun altitude
Rises 12:15:26 0° 221° (SW) 2,528 5.9 -24.7°
Reaches altitude 10° 12:16:46 10° 222° (SW) 1,917 5.2 -25.0°
Maximum altitude 12:20:34 82° 309° (NW) 1,055 3.6 -25.9°
Drops below altitude 10° 12:35:19 10° 37° (NE) 6,864 7.7 -29.2°
Sets 12:45:51 0° 38° (NE) 10,492 8.7 -31.5°
